Location: Unspecified
(41.1850°N, 73.2650°W)
Time: 16:46:50
(UTC+00:00)

Gbstr 26 Del rocket - Pass Details

Date: 14 December 2025
Orbit: 490 x 1218 km, 51.8° (Epoch: 16 January)

Event Time Altitude Azimuth Distance (km) Brightness Sun altitude
Rises 22:01:13 0° 262° (W) 2,900 8.2 -6.9°
Reaches altitude 10° 22:03:52 10° 273° (W) 1,894 6.7 -7.3°
Maximum altitude 22:07:37 30° 336° (NNW) 963 4.1 -8.0°
Drops below altitude 10° 22:11:02 10° 40° (NE) 1,712 4.8 -8.6°
Enters shadow 22:11:14 - 41° (NE) 1,783 4.9 -8.6°
